User: anonymous   Login
Location: Ostrava
(49.8330°N, 18.2830°E)
Time: 17:19:06
(UTC+02:00)
Language:

Cosmos 1400 Rocket - Orbit

View from above orbital plane
View from above orbital plane
View from above satellite
View from above satellite

Ground track
Ground track

The orbit data is extracted from the following two-line orbital elements,

1 13403U 82079B   15184.14580667  .00000500  00000-0  32678-4 0  9998
2 13403 081.1693 007.7497 0035952 112.6059 247.8973 15.05416217789098
Epoch (UTC): 03 July 2015 03:29:57
Eccentricity: 0.0035952
inclination: 81.1693°
perigee height: 525 km
apogee height: 575 km
right ascension of ascending node: 7.7497°
argument of perigee: 112.6059°
revolutions per day: 15.05416217
mean anomaly at epoch: 247.8973°
orbit number at epoch: 78909

The dashed part of the orbit path shows where the satellite is in the earth's shadow,  

DLR